RCSS

Taipei/Songshan

Airport
ICAO code
RCSS
Summary
ICAO Region
APAC
ICAO Territory
Location

Songshan District, Taipei,

Coordinates
25° 4' 10" N , 121° 33' 7" E
KCC
Metar
Observation
RCSS 271400Z 24003KT 9999 FEW030 SCT120 23/21 Q1014 NOSIG RMK A2995
Station
Sungshan / Taipei
Date/Time
2022-11-27 14:00:00
Wind direction
240°
Wind speed
03 kts
Lowest cloud amount
few clouds
Temperature
23°C
Dew point
21°C
Humidity
88%
QNH
1014 hPa
Weather condition
n/a

Description

Taipei Songshan Airport is a midsize commercial airport and military airbase located in Songshan, Taipei, Taiwan. It is one of three Taiwanese airports with regular international flights.

Climatology

Humid “subtropical” climate (Köppen climate classification Cfa) - characterized by hot, humid summers and cool winters. Significant amounts of precipitation occur in all seasons in most areas. Winter rainfall is associated with large storms.

Runways

Designator Length Width Surface Rops
10/28 2605 60 ASP Yes/Yes

Airport map

Aerial View

SKYbrary Partners:

Safety knowledge contributed by: